This is the latest recevied weather packets stored in our database for station/object KG5EO. If no packets are shown the sender has not sent any weather packets the latest 10 day(s).
| Time | Temp. | Humidity | Pressure | Rain* | Wind** | Luminosity | Snow |
|---|---|---|---|---|---|---|---|
| 1778084776 | 22.78° C | 31% | 41.2 hPa | 0 mm | - | - | - |
| 1778084475 | 22.78° C | 32% | 41.2 hPa | 0 mm | - | - | - |
| 1778084175 | 22.78° C | 30% | 41.2 hPa | 0 mm | - | - | - |
| 1778083875 | 23.33° C | 31% | 41.2 hPa | 0 mm | - | - | - |
| 1778083575 | 22.78° C | 32% | 41.2 hPa | 0 mm | - | - | - |
| 1778083276 | 22.78° C | 34% | 41.2 hPa | 0 mm | - | - | - |
| 1778082975 | 22.22° C | 31% | 41.2 hPa | 0 mm | - | - | - |
| 1778082674 | 22.78° C | 31% | 41.2 hPa | 0 mm | - | - | - |
| 1778082374 | 22.22° C | 34% | 41.2 hPa | 0 mm | - | - | - |
| 1778082075 | 21.67° C | 34% | 41.2 hPa | 0 mm | - | - | - |
| 1778081775 | 21.11° C | 34% | 41.2 hPa | 0 mm | - | - | - |
| 1778081474 | 21.11° C | 37% | 41.2 hPa | 0 mm | - | - | - |
| 1778081174 | 21.11° C | 37% | 41.2 hPa | 0 mm | - | - | - |
| 1778080874 | 20.56° C | 36% | 41.2 hPa | 0 mm | - | - | - |
| 1778080574 | 20.56° C | 36% | 41.2 hPa | 0 mm | - | - | - |
| 1778080273 | 20.56° C | 38% | 41.2 hPa | 0 mm | - | - | - |
| 1778079973 | 20° C | 37% | 41.2 hPa | 0 mm | - | - | - |
| 1778079672 | 20° C | 39% | 41.2 hPa | 0 mm | - | - | - |
| 1778079373 | 20° C | 40% | 41.2 hPa | 0 mm | - | - | - |
| 1778079072 | 19.44° C | 40% | 41.2 hPa | 0 mm | - | - | - |
| 1778078772 | 18.89° C | 41% | 41.2 hPa | 0 mm | - | - | - |
| 1778078472 | 18.89° C | 41% | 41.2 hPa | 0 mm | - | - | - |
| 1778078172 | 18.89° C | 41% | 41.2 hPa | 0 mm | - | - | - |
| 1778077872 | 18.89° C | 43% | 41.2 hPa | 0 mm | - | - | - |
| 1778077572 | 18.89° C | 42% | 41.2 hPa | 0 mm | - | - | - |
* Rain latest hour (hover to see other rain measurements)
** Current wind speed in m/s (hover to see current wind gust speed)